Location: Cussy
(47.0410°N, 4.6412°E)
Time: 13:54:27
(UTC+00:00)

Meteor 1-4 Rocket - Visible Passes

Search period start: 11 April 2021 00:00
Search period end: 21 April 2021 00:00
Orbit: 447 x 500 km, 81.2° (Epoch: 10 April)

Date Brightness Start Highest point End Pass type
(mag) Time Alt. Az. Time Alt. Az. Time Alt. Az.
11 Apr 5.9 22:53:39 10° N 22:53:39 10° N 22:53:42 10° N visible
12 Apr 5.7 22:25:30 11° NNE 22:25:30 11° NNE 22:25:38 10° NNE visible
13 Apr 5.5 21:57:20 10° NNE 21:57:20 10° NNE 21:57:23 10° NNE visible
14 Apr 5.8 23:03:15 12° NNW 23:03:15 12° NNW 23:03:42 10° NNW visible
15 Apr 5.4 22:35:02 16° NNW 22:35:02 16° NNW 22:35:58 10° N visible
16 Apr 5.0 22:06:47 20° N 22:06:47 20° N 22:08:01 10° N visible
17 Apr 4.6 21:38:31 22° NNE 21:38:31 22° NNE 21:39:55 10° NNE visible
18 Apr 4.4 21:10:12 21° NE 21:10:12 21° NE 21:11:39 10° NNE visible
18 Apr 5.5 22:44:18 13° NW 22:44:18 13° NW 22:45:28 10° NNW visible
19 Apr 4.4 20:41:50 18° NE 20:41:50 18° NE 20:43:10 10° NE visible
19 Apr 4.9 22:15:56 21° NW 22:15:56 21° NW 22:18:03 10° NNW visible
20 Apr 4.6 20:13:26 13° ENE 20:13:26 13° ENE 20:14:20 10° NE visible
20 Apr 4.1 21:47:32 33° NW 21:47:32 33° NW 21:50:16 10° N visible
